www.pogodaiklimat.ru

Погода и климат >> Архив погоды >> Россия >> Калмыкия >> Городовиковск


ПОГОДА в Городовиковске

  • Прогноз погоды в Городовиковске
  • Монитор погоды в Городовиковске

АРХИВ ПОГОДЫ в Городовиковске

Время (UTC), дата Ветер
(напр.,м/с)
 
Видим.   Явления Облачность Т
(С)
Тd
(С)
f
(%)
Тe
(С)
Тes
(С)
Комфортность P
(гПа)
Po
(гПа)
Тmin
(С)
Tmax
(С)
R
(мм)
R24
(мм)
S
(см)
12 18.05 В 3
{12}
20 км в посл. час ливневой дождь 10/6 600 м
[Cb calv Ac trans Ci]
+25.7 +12.2 43 +27 +29 жарко 1009.3 999.4
15 18.05 В 3 20 км 10/0
[Ac trans Ci fib]
+25.7 +11.0 40 +27 +28 жарко 1008.3 998.4 +26.7 0.0
18 18.05 СВ 3 20 км 10/0
[Ac trans Ci fib]
+21.1 +11.2 53 +23 +23 комфорт 1008.7 998.6
21 18.05 В 3 20 км 10/0
[Cc]
+18.0 +10.3 61 +18 +18 1008.7 998.5
00 19.05 В 3 20 км 6/0
[Ac trans Ci fib]
+15.2 +12.3 83 +14 +14 1008.7 998.4
03 19.05 В 2 20 км 10/10 600 м
[Sc]
+16.4 +14.8 90 +16 +16 1009.7 999.5 +14.6
06 19.05 В 3
{10}
20 км 10/5 600 м
[Sc Ac trans Ci fib]
+20.5 +15.2 72 +24 +26 комфорт 1010.3 1000.2
09 19.05 В 4 20 км 10/8 600 м
[Sc Ac trans Ci fib]
+23.4 +13.3 53 +27 +28 душно 1010.5 1000.5
12 19.05 В 2 20 км 10/5 600 м
[Sc Ac trans Cc]
+24.7 +12.6 47 +27 +30 жарко 1010.5 1000.5
15 19.05 штиль 0 20 км 10/8 600 м
[Sc Ac und]
+23.6 +14.4 56 +26 +26 жарко 1011.8 1001.8 +25.1
18 19.05 В 2 20 км 10/6 600 м
[Sc Cs]
+20.0 +13.4 66 +23 +23 комфорт 1011.8 1001.6
21 19.05 В 1 20 км 4/0
[Ac trans Ci fib]
+16.8 +11.0 69 +18 +18 1013.1 1002.8
00 20.05 В 2 20 км 10/3 600 м
[Sc Ci]
+16.1 +8.5 61 +16 +16 1013.7 1003.4
03 20.05 В 2 20 км 8/3 600 м
[Sc Cc]
+15.6 +8.8 64 +16 +16 1014.6 1004.2 +14.1
06 20.05 В 3 20 км 3/0
[Ci fib]
+23.2 +7.6 37 +24 +32 комфорт 1015.4 1005.4
09 20.05 СВ 4 20 км ясно +26.3 +6.0 27 +26 +38 жарко 1016.0 1006.1
12 20.05 СВ 3 20 км 10/0
[Ac trans Ci fib]
+27.0 +5.2 25 +26 +31 жарко 1016.0 1006.0
15 20.05 СВ 2 20 км 9/0
[Ci fib]
+25.5 +5.1 27 +25 +26 комфорт 1016.2 1006.1 +27.2
18 20.05 СВ 2 20 км ясно +18.2 +7.5 50 +19 +19 1017.6 1007.3
21 20.05 В 3 н/о н/о +15.4 +4.5 48 +15 +15 1018.9 1008.5
00 21.05 В 2 20 км ясно +12.0 +2.3 51 +11 +11 1019.1 1008.6
03 21.05 В 3 20 км ясно +12.5 +1.6 47 +11 +12 1020.0 1009.4 +10.6
06 21.05 ЮВ 4 20 км 1/0
[Ci fib]
+19.8 +2.7 32 +20 +27 1020.2 1009.9
09 21.05 В 4 20 км 1/0
[Ci fib]
+23.8 +5.2 30 +24 +36 комфорт 1019.4 1009.3
12 21.05 В 3 20 км 4/0
[Ci]
+26.0 +5.9 28 +26 +35 жарко 1018.0 1008.0
15 21.05 ЮВ 3 20 км 9/0
[Ci]
+25.0 +8.0 34 +25 +27 комфорт 1017.1 1007.1 +26.2
18 21.05 В 2 20 км 10/1 600 м
[Sc Ci]
+19.4 +5.4 40 +21 +21 комфорт 1017.5 1007.2
21 21.05 ЮВ 3 20 км 10/0
[Cs]
+16.3 +8.8 61 +16 +16 1017.2 1006.8
00 22.05 ЮВ 3 20 км 10/0
[Cs]
+14.4 +8.4 67 +14 +14 1016.8 1006.4
03 22.05 ЮВ 3 20 км 10/0
[Ac cast]
+13.4 +7.3 67 +12 +13 1017.1 1006.6 +12.9
06 22.05 ЮВ 4
{11}
20 км 10/3 600 м
[Sc Ac trans Cc]
+17.4 +8.5 56 +17 +20 1015.7 1005.4
09 22.05 ЮВ 3
{11}
20 км 10/4 600 м
[Sc Ac trans Cc]
+22.2 +10.1 46 +24 +29 комфорт 1014.3 1004.2
12 22.05 Ю 1 10 км слаб. ливневой дождь 10/10 300 м
[Cb calv]
+17.3 +14.6 84 +18 +18 1014.8 1004.6
15 22.05 ЮВ 2 20 км в посл. час ливневой дождь 10/8 600 м
[Cb calv Ac trans Ci fib]
+17.5 +15.7 89 +18 +18 1014.3 1004.1 +22.5 3
18 22.05 штиль 0 20 км {ливн. осадки} 10/3 600 м
[Sc diur, vesp Ac trans Ci fib]
+14.8 +13.6 93 +14 +14 1014.0 1003.7
21 22.05 ЮВ 1 4000 м зарница 8/3 600 м
[Sc Ci fib]
+14.1 +13.4 96 +14 +14 1013.2 1002.8
00 23.05 ЮЗ 1 20 км 6/0
[Ci fib]
+14.4 +13.3 93 +15 +15 1012.9 1002.5
03 23.05 ЮЗ 2 20 км 8/3 600 м
[Sc Ac trans Cc]
+15.0 +13.3 90 +15 +15 1012.7 1002.4 +14.1
06 23.05 З 3 20 км 10/4 600 м
[Sc Ac trans Ci sp]
+19.2 +13.9 71 +21 +23 комфорт 1012.0 1001.9
09 23.05 З 2 20 км 10/8 600 м
[Cu Sc Ci sp]
+22.6 +13.3 56 +26 +29 жарко 1010.7 1000.7
12 23.05 С 3
{13}
20 км 10/8 600 м
[Cu Sc Ac trans Ci sp]
+18.3 +12.6 69 +19 +20 1011.2 1001.0
15 23.05 СЗ 1 20 км 10/4 600 м
[Cu Sc Ac trans Cc]
+20.0 +11.1 57 +23 +23 комфорт 1010.2 1000.1 +24.5
18 23.05 Ю 2 10 км гроза, ливневой дождь 10/10 300 м
[Cb calv]
+15.3 +13.7 90 +15 +15 1011.0 1000.7
21 23.05 ЮЗ 1 20 км {гроза, ливн. осадки} 8/0
[Ac trans]
+14.6 +13.2 91 +15 +15 1011.1 1000.8
00 24.05 ЮЗ 1 4000 м дымка {гроза, ливн. осадки} 8/3 600 м
[Sc Ac trans]
+13.1 +12.2 94 +13 +13 1010.8 1000.4
03 24.05 ЮЗ 2 20 км 9/3 600 м
[Sc Ac trans]
+15.3 +13.8 91 +15 +15 1010.9 1000.6 +13.0 5
06 24.05 З 2 20 км 9/6 600 м
[Sc Ac trans]
+19.0 +15.1 78 +21 +23 комфорт 1011.1 1000.9
09 24.05 З 3 20 км 8/8 600 м
[Sc diur, vesp]
+23.6 +14.8 58 +26 +29 жарко 1010.7 1000.7
12 24.05 СЗ 2 20 км 6/5 600 м
[Sc diur, vesp Ci fib]
+25.5 +12.7 45 +27 +33 жарко 1009.9 1000.0
15 24.05 ЮЗ 1 20 км 8/4 600 м
[Sc diur, vesp Cs]
+25.6 +11.2 40 +27 +28 жарко 1009.6 999.7 +26.6
18 24.05 ЮВ 1 20 км 8/3 600 м
[Sc Ci fib]
+16.8 +14.4 86 +18 +18 1010.4 1000.1
21 24.05 В 2 20 км ясно +18.4 +12.4 68 +19 +19 1010.2 1000.0
00 25.05 ЮВ 3 20 км 10/0
[Cs]
+18.4 +11.9 66 +19 +19 1009.6 999.4
03 25.05 В 2 20 км 10/4 600 м
[Sc Cs]
+17.4 +12.1 71 +18 +18 1009.2 999.0 +16.4
06 25.05 ЮВ 3 20 км 6/0
[Ac trans Cs]
+24.3 +13.5 51 +27 +33 жарко 1008.3 998.4

 

Местоположение метеостанции Городовиковск (Калмыкия, Россия): широта 46.07 долгота 41.97 высота над уровнем моря 87 м.

В архиве по умолчанию представлена погода в Городовиковске за последнюю неделю. Архивные данные за месяц целиком и за предыдущие месяцы, начиная с января 2011 года, Вы можете получить, выбрав интересующий диапазон дат из раскрывающегося списка и нажав кнопку "Ввод!".


*Определитесь, кто Вы:
робот инопланетянин человек

Внимание! Время в таблицах - всемирное. Для получения местного времени необходимо прибавить поправку, которая равна 3 ч.

Смотрите также архив погоды в соседних городах и на ближайших метеорологических станциях:

Погода в Красногвардейском (Ставропольский край, Россия) (46 км)
Погода в Гиганте (Ростовская область, Россия) (69 км)
Погода в Изобильном (Ставропольский край, Россия) (81 км)
Погода в Белой Глине (Краснодарский край, Россия) (84 км)
Погода в Новоалександровске (Ставропольский край, Россия) (87 км)
Погода в Светлограде (Ставропольский край, Россия) (105 км)
Погода в Ставрополе (Ставропольский край, Россия) (106 км)
Погода в Дивном (Ставропольский край, Россия) (108 км)
Погода в Зимовниках (Ростовская область, Россия) (126 км)
Погода в Кропоткине (Краснодарский край, Россия) (130 км)

Пояснения к столбцам:

Ветер - указаны скорость ветра в м/с - средняя за 10 мин, порывы в срок и между сроками (в фигурных скобках) и направление, откуда дует ветер: С - северный, СВ - северо-восточный, В - восточный, ЮВ - юго-восточный, Ю - южный, ЮЗ - юго-западный, З - западный, СЗ - северо-западный.
Видимость - горизонтальная дальность видимости в метрах или километрах. При видимости от 1 до 10 км при отсутствии осадков обычно наблюдается дымка, при ухудшении видимости до 1 км и менее - туман. В сухую погоду видимость может ухудшаться дымом, пылью или мглою.
Явления - указаны атмосферные явления, наблюдавшиеся в срок или в последний час перед сроком; фигурными скобками обозначены явления, наблюдавшиеся между сроками (за 1-3 часа до срока); квадратными скобками обозначены град или гололедные отложения с указанием их диаметра в мм.
Облачность - указаны через наклонную черту общая и нижняя облачность в баллах и высота нижней границы облаков в метрах; квадратными скобками обозначены формы облаков: Ci - перистые, Cs - перисто-слоистые, Cc - перисто-кучевые, Ac - высококучевые, As - высокослоистые, Sc - слоисто-кучевые, Ns - слоисто-дождевые, Cu - кучевые, Cb - кучево-дождевые. Подробнее классификацию облаков см. в Атласе облаков (PDF).
T - Температура воздуха - температура, измеренная на высоте 2 м над землей.
Td - Температура точки росы - температура, при понижении до которой содержащийся в воздухе водяной пар достигнет насыщения.
f - Относительная влажность воздуха - влажноcть воздуха, измеренная на высоте 2 м над землей.
Te - Эффективная температура - температура, которую ощущает одетый по сезону человек в тени. Характеристика душности погоды. При расчете учитывается влияние влажности воздуха и скорости ветра на теплоощущения человека.
Tes - Эффективная температура на солнце - температура, которую ощущает человек, с поправкой на солнечный нагрев. Характеристика знойности погоды. Зависит от высоты солнца над горизонтом, облачности и скорости ветра. Ночью, в пасмурную погоду, а также при ветре 12 м/с и более поправка равна нулю.
P - Атмосферное давление - приведенное к уровню моря атмосферное давление.
Po - Атмосферное давление - измеренное на уровне метеостанции атмосферное давление.
Tmin - Минимальная температура - минимум температуры воздуха на высоте 2 м над землей.
Tmax - Максимальная температура - максимум температуры воздуха на высоте 2 м над землей.
R - Количество осадков - Количество выпавших осадков за период времени, мм. При наведении курсора мыши на число - период времени, за который выпало указанное количество осадков.
R24 - Количество осадков - Количество выпавших осадков за 24 часа, мм.
S - Снежный покров - Высота снежного покрова, см. При наведении курсора мыши на число - состояние снежного покрова и степень покрытия местности в баллах.